User: anonymous   Login
Location: Tyler Bend Campground
(35.9875°N, 92.7606°W)
Time: 10:22:42
(UTC-06:00)
Language:

CZ-2C R/B - Orbit

View from above orbital plane
View from above orbital plane
View from above satellite
View from above satellite

Ground track
Ground track

The orbit data is extracted from the following two-line orbital elements,

1 36089U 09061B   14324.69425737  .00000436  00000-0  12065-3 0  4871
2 36089 098.0904 351.4326 0083390 058.6061 051.5318 14.49277480265609
Epoch (UTC): 20 November 2014 16:39:43
Eccentricity: 0.0083390
inclination: 98.0904°
perigee height: 669 km
apogee height: 787 km
right ascension of ascending node: 351.4326°
argument of perigee: 58.6061°
revolutions per day: 14.49277480
mean anomaly at epoch: 51.5318°
orbit number at epoch: 26560

The dashed part of the orbit path shows where the satellite is in the earth's shadow,  

DLR